This is the latest recevied weather packets stored in our database for station/object K1FSY-9. If no packets are shown the sender has not sent any weather packets the latest 10 day(s).
| Time | Temp. | Humidity | Pressure | Rain* | Wind** | Luminosity | Snow |
|---|---|---|---|---|---|---|---|
| 1778038884 | 15.56° C | 74% | 1007.4 hPa | 0 mm | - | - | - |
| 1778037084 | 15.56° C | 73% | 1007.4 hPa | 0 mm | - | - | - |
| 1778035280 | 16.11° C | 71% | 1007.4 hPa | 0 mm | - | - | - |
| 1778033480 | 16.67° C | 68% | 1007.4 hPa | 0 mm | - | - | - |
| 1778028064 | 17.78° C | 65% | 1006 hPa | 0 mm | - | - | - |
| 1778026262 | 18.33° C | 63% | 1005.4 hPa | 0 mm | - | - | - |
| 1778024460 | 18.89° C | 62% | 1005.4 hPa | 0 mm | - | - | - |
| 1778022660 | 20° C | 58% | 1004.7 hPa | 0 mm | - | - | - |
| 1778020859 | 21.11° C | 55% | 1004 hPa | 0 mm | - | - | - |
| 1778017254 | 23.33° C | 51% | 1004 hPa | 0 mm | - | - | - |
| 1778015449 | 23.89° C | 48% | 1003.3 hPa | 0 mm | - | - | - |
| 1778013644 | 25° C | 47% | 1003.3 hPa | 0 mm | - | - | - |
| 1778011839 | 26.11° C | 44% | 1003 hPa | 0 mm | - | - | - |
| 1778010036 | 27.22° C | 42% | 1003 hPa | 0 mm | - | - | - |
| 1778008235 | 27.22° C | 42% | 1002.7 hPa | 0 mm | - | - | - |
| 1778002825 | 26.67° C | 47% | 1003.7 hPa | 0 mm | - | - | - |
| 1778001022 | 26.11° C | 46% | 1004.4 hPa | 0 mm | - | - | - |
| 1777999235 | 25.56° C | 46% | 1004.7 hPa | 0 mm | - | - | - |
| 1777997416 | 25.56° C | 47% | 1005.4 hPa | 0 mm | - | - | - |
| 1777995615 | 24.44° C | 50% | 1006 hPa | 0 mm | - | - | - |
| 1777993811 | 24.44° C | 49% | 1006.4 hPa | 0 mm | - | - | - |
| 1777988408 | 15° C | 82% | 1007.4 hPa | 0 mm | - | - | - |
| 1777986839 | 13.89° C | 80% | 1008.1 hPa | 0 mm | - | - | - |
| 1777986606 | 13.89° C | 80% | 1008.1 hPa | 0 mm | - | - | - |
| 1777984805 | 13.33° C | 80% | 1008.4 hPa | 0 mm | - | - | - |
* Rain latest 24 hours (hover to see other rain measurements)
** Current wind speed in m/s (hover to see current wind gust speed)